If you wish to contribute or participate in the discussions about articles you are invited to join SKYbrary as a registered user

 Actions

Brindisi/Papola Casale Airport/Salento Airport

From SKYbrary Wiki

LIBR
Airport
ICAO: LIBR – IATA: BDS
Summary
Name Brindisi/Papola Casale Airport/Salento Airport
Region Europe
Territory Italy IT.gif
Location Brindisi, Apulia
Serving Brindisi
Elevation 14.326 m
47 ft
47 ft14.326 m
Coordinates 40° 39' 45.32" N, 17° 56' 33.31" E
Runways
Designator Length Width Surface ROPS
5/23 1869 m6,131.89 ft
45 m147.638 ft
ASP yes/yes
13/31 2532 m8,307.087 ft
45 m147.638 ft
ASP no/no


METAR
Observation LIBR 201320Z 23010KT 9999 SCT030 18/08 Q1014
Station Brindisi
Date/Time 20 November 2019 13:20:00
Wind direction 230°
Wind speed 10 kts
Lowest cloud amount scattered clouds
Temperature 18°C
Dew point 8°C
Humidity 52%
QNH 1014 hPa
Weather condition n/a

International airport serving Italian port of Brindisi.

Climatology

Dry-summer subtropical ”Mediterranean" climate (Köppen climate classification Csa) - characterized by hot, dry summers and mild winters. During the summer, subtropical high pressure cells dominate, making rainfall unlikely except for the occasional thunderstorm. In the winter, periodic storms bring rain (snow at higher elevations).

Maps

Terrain

Loading map...

Airport Layout

Loading map...


Accidents & Serious Incidents at or in vicinity of LIBR

None on SKYbrary